Time,TemperatureF,DewpointF,PressureIn,WindDirection,WindDirectionDegrees,WindSpeedMPH,WindSpeedGustMPH,Humidity,HourlyPrecipIn,Conditions,Clouds,dailyrainin,SoftwareType,DateUTC
2013-04-25 00:02:00,48.0,41.0,30.27,NNW,342,0.0,0.0,76,0.00,,,0.00,WUHU216WMR968SP,2013-04-25 04:02:00,
2013-04-25 00:07:00,48.0,41.0,30.27,North,1,0.0,0.0,77,0.00,,,0.00,WUHU216WMR968SP,2013-04-25 04:07:00,
2013-04-25 00:12:00,47.8,41.0,30.27,North,0,0.0,0.0,76,0.00,,,0.00,WUHU216WMR968SP,2013-04-25 04:12:00,
2013-04-25 00:17:00,47.8,41.0,30.27,North,10,0.0,0.0,76,0.00,,,0.00,WUHU216WMR968SP,2013-04-25 04:17:00,
2013-04-25 00:22:00,47.8,41.0,30.27,North,10,0.0,0.0,76,0.00,,,0.00,WUHU216WMR968SP,2013-04-25 04:22:00,
2013-04-25 00:27:00,47.8,41.0,30.27,NNW,340,0.0,4.1,76,0.00,,,0.00,WUHU216WMR968SP,2013-04-25 04:27:00,
2013-04-25 00:32:00,47.7,41.0,30.27,NNW,341,0.0,4.1,76,0.00,,,0.00,WUHU216WMR968SP,2013-04-25 04:32:00,
2013-04-25 00:37:00,47.5,41.0,30.27,North,350,0.0,0.0,76,0.00,,,0.00,WUHU216WMR968SP,2013-04-25 04:37:00,
2013-04-25 00:42:00,47.3,41.0,30.27,North,350,0.0,0.0,76,0.00,,,0.00,WUHU216WMR968SP,2013-04-25 04:42:00,
2013-04-25 00:47:00,46.9,39.2,30.27,NW,322,0.0,0.0,76,0.00,,,0.00,WUHU216WMR968SP,2013-04-25 04:47:00,
2013-04-25 00:52:00,46.6,39.2,30.27,NW,322,0.0,0.0,77,0.00,,,0.00,WUHU216WMR968SP,2013-04-25 04:52:00,
2013-04-25 00:57:00,46.2,39.2,30.27,NW,322,0.0,0.0,77,0.00,,,0.00,WUHU216WMR968SP,2013-04-25 04:57:00,
2013-04-25 01:02:00,46.0,39.2,30.27,NW,325,0.0,0.0,77,0.00,,,0.00,WUHU216WMR968SP,2013-04-25 05:02:00,
2013-04-25 01:07:00,46.0,39.2,30.27,NNW,328,0.0,0.0,78,0.00,,,0.00,WUHU216WMR968SP,2013-04-25 05:07:00,
2013-04-25 01:12:00,46.0,41.0,30.27,NNW,330,0.0,0.0,79,0.00,,,0.00,WUHU216WMR968SP,2013-04-25 05:12:00,
2013-04-25 01:17:00,45.9,41.0,30.27,North,353,0.0,0.0,80,0.00,,,0.00,WUHU216WMR968SP,2013-04-25 05:17:00,
2013-04-25 01:22:00,45.9,41.0,30.27,North,353,0.0,0.0,79,0.00,,,0.00,WUHU216WMR968SP,2013-04-25 05:22:00,
2013-04-25 01:27:00,45.9,41.0,30.27,NNE,12,0.0,0.0,80,0.00,,,0.00,WUHU216WMR968SP,2013-04-25 05:27:00,
2013-04-25 01:32:00,45.9,41.0,30.27,NNE,12,0.0,0.0,80,0.00,,,0.00,WUHU216WMR968SP,2013-04-25 05:32:00,
2013-04-25 01:37:00,45.9,41.0,30.27,NNE,12,0.0,0.0,80,0.00,,,0.00,WUHU216WMR968SP,2013-04-25 05:37:00,
2013-04-25 01:42:00,45.7,41.0,30.27,NNE,12,0.0,0.0,81,0.00,,,0.00,WUHU216WMR968SP,2013-04-25 05:42:00,
2013-04-25 01:47:00,45.7,41.0,30.27,NNE,12,0.0,0.0,81,0.00,,,0.00,WUHU216WMR968SP,2013-04-25 05:47:00,
2013-04-25 01:53:00,45.9,41.0,30.27,NNE,12,0.0,0.0,81,0.00,,,0.00,WUHU216WMR968SP,2013-04-25 05:53:00,
2013-04-25 01:58:00,45.9,41.0,30.27,NNE,12,0.0,0.0,81,0.00,,,0.00,WUHU216WMR968SP,2013-04-25 05:58:00,
2013-04-25 02:03:00,46.0,41.0,30.27,NNE,12,0.0,0.0,82,0.00,,,0.00,WUHU216WMR968SP,2013-04-25 06:03:00,
2013-04-25 02:08:00,46.2,41.0,30.27,NNE,12,0.0,0.0,82,0.00,,,0.00,WUHU216WMR968SP,2013-04-25 06:08:00,
2013-04-25 02:13:00,46.2,41.0,30.27,NNE,14,0.0,0.0,82,0.00,,,0.00,WUHU216WMR968SP,2013-04-25 06:13:00,
2013-04-25 02:18:00,46.4,41.0,30.27,NNE,14,0.0,0.0,82,0.00,,,0.00,WUHU216WMR968SP,2013-04-25 06:18:00,
2013-04-25 02:23:00,46.4,41.0,30.27,NNE,14,0.0,0.0,82,0.00,,,0.00,WUHU216WMR968SP,2013-04-25 06:23:00,
2013-04-25 02:28:00,46.4,41.0,30.27,North,2,0.0,0.0,82,0.00,,,0.00,WUHU216WMR968SP,2013-04-25 06:28:00,
2013-04-25 02:33:00,46.2,41.0,30.27,NE,34,0.0,4.1,82,0.00,,,0.00,WUHU216WMR968SP,2013-04-25 06:33:00,
2013-04-25 02:38:00,46.2,41.0,30.27,NNE,19,0.0,4.1,82,0.00,,,0.00,WUHU216WMR968SP,2013-04-25 06:38:00,
2013-04-25 02:43:00,46.0,41.0,30.27,NNE,19,0.0,3.3,82,0.00,,,0.00,WUHU216WMR968SP,2013-04-25 06:43:00,
2013-04-25 02:48:00,46.0,41.0,30.27,NNE,19,0.0,0.0,82,0.00,,,0.00,WUHU216WMR968SP,2013-04-25 06:48:00,
2013-04-25 02:53:00,45.9,41.0,30.27,NNE,28,0.0,0.0,82,0.00,,,0.00,WUHU216WMR968SP,2013-04-25 06:53:00,
2013-04-25 02:58:00,45.9,41.0,30.27,NNE,28,0.0,0.0,83,0.00,,,0.00,WUHU216WMR968SP,2013-04-25 06:58:00,
2013-04-25 03:03:00,45.9,41.0,30.27,NNE,28,0.0,0.0,83,0.00,,,0.00,WUHU216WMR968SP,2013-04-25 07:03:00,
2013-04-25 03:08:00,45.9,41.0,30.27,NNE,27,0.0,0.0,83,0.00,,,0.00,WUHU216WMR968SP,2013-04-25 07:08:00,
2013-04-25 03:13:00,46.0,41.0,30.27,NNE,26,0.0,0.0,83,0.00,,,0.00,WUHU216WMR968SP,2013-04-25 07:13:00,
2013-04-25 03:18:00,45.9,41.0,30.27,NNE,26,0.0,0.0,83,0.00,,,0.00,WUHU216WMR968SP,2013-04-25 07:18:00,
2013-04-25 03:23:00,45.7,41.0,30.27,North,357,0.0,0.0,83,0.00,,,0.00,WUHU216WMR968SP,2013-04-25 07:23:00,
2013-04-25 03:28:00,45.5,41.0,30.27,North,357,0.0,0.0,83,0.00,,,0.00,WUHU216WMR968SP,2013-04-25 07:28:00,
2013-04-25 03:33:00,45.3,39.2,30.27,NNE,22,0.0,0.0,83,0.00,,,0.00,WUHU216WMR968SP,2013-04-25 07:33:00,
2013-04-25 03:38:00,45.1,39.2,30.27,NNE,22,0.0,0.0,82,0.00,,,0.00,WUHU216WMR968SP,2013-04-25 07:38:00,
2013-04-25 03:43:00,45.0,39.2,30.27,NNE,22,0.0,0.0,82,0.00,,,0.00,WUHU216WMR968SP,2013-04-25 07:43:00,
2013-04-25 03:48:00,44.8,39.2,30.27,NNE,22,0.0,0.0,82,0.00,,,0.00,WUHU216WMR968SP,2013-04-25 07:48:00,
2013-04-25 03:53:00,44.2,39.2,30.24,NNE,22,0.0,0.0,83,0.00,,,0.00,WUHU216WMR968SP,2013-04-25 07:53:00,
2013-04-25 03:58:00,44.1,39.2,30.24,NNE,22,0.0,0.0,83,0.00,,,0.00,WUHU216WMR968SP,2013-04-25 07:58:00,
2013-04-25 04:03:00,43.7,39.2,30.24,NNE,22,0.0,0.0,83,0.00,,,0.00,WUHU216WMR968SP,2013-04-25 08:03:00,
2013-04-25 04:08:00,43.5,39.2,30.24,NNE,22,0.0,0.0,84,0.00,,,0.00,WUHU216WMR968SP,2013-04-25 08:08:00,
2013-04-25 04:13:00,43.3,39.2,30.24,NNE,22,0.0,0.0,84,0.00,,,0.00,WUHU216WMR968SP,2013-04-25 08:13:00,
2013-04-25 04:19:00,43.2,39.2,30.24,NNE,22,0.0,0.0,85,0.00,,,0.00,WUHU216WMR968SP,2013-04-25 08:19:00,
2013-04-25 04:24:00,43.0,39.2,30.24,NNE,22,0.0,0.0,85,0.00,,,0.00,WUHU216WMR968SP,2013-04-25 08:24:00,
2013-04-25 04:29:00,42.8,39.2,30.24,NNE,22,0.0,0.0,85,0.00,,,0.00,WUHU216WMR968SP,2013-04-25 08:29:00,
2013-04-25 04:34:00,42.6,39.2,30.24,NNE,22,0.0,0.0,86,0.00,,,0.00,WUHU216WMR968SP,2013-04-25 08:34:00,
2013-04-25 04:39:00,42.4,39.2,30.24,NNE,22,0.0,0.0,86,0.00,,,0.00,WUHU216WMR968SP,2013-04-25 08:39:00,
2013-04-25 04:44:00,42.3,39.2,30.24,NNE,22,0.0,0.0,86,0.00,,,0.00,WUHU216WMR968SP,2013-04-25 08:44:00,
2013-04-25 04:49:00,42.1,39.2,30.24,NNE,22,0.0,0.0,87,0.00,,,0.00,WUHU216WMR968SP,2013-04-25 08:49:00,
2013-04-25 04:54:00,41.9,39.2,30.27,NE,46,0.0,0.0,87,0.00,,,0.00,WUHU216WMR968SP,2013-04-25 08:54:00,
2013-04-25 04:59:00,41.5,37.4,30.27,NE,46,0.0,0.0,87,0.00,,,0.00,WUHU216WMR968SP,2013-04-25 08:59:00,
2013-04-25 05:04:00,41.5,37.4,30.27,NE,46,0.0,0.0,88,0.00,,,0.00,WUHU216WMR968SP,2013-04-25 09:04:00,
2013-04-25 05:09:00,41.5,37.4,30.27,NE,46,0.0,0.0,88,0.00,,,0.00,WUHU216WMR968SP,2013-04-25 09:09:00,
2013-04-25 05:14:00,41.5,37.4,30.27,NE,46,0.0,0.0,88,0.00,,,0.00,WUHU216WMR968SP,2013-04-25 09:14:00,
2013-04-25 05:19:00,41.2,37.4,30.27,NE,46,0.0,0.0,88,0.00,,,0.00,WUHU216WMR968SP,2013-04-25 09:19:00,
2013-04-25 05:24:00,41.0,37.4,30.27,NE,46,0.0,0.0,88,0.00,,,0.00,WUHU216WMR968SP,2013-04-25 09:24:00,
2013-04-25 05:29:00,40.8,37.4,30.27,NE,46,0.0,0.0,88,0.00,,,0.00,WUHU216WMR968SP,2013-04-25 09:29:00,
2013-04-25 05:34:00,40.5,37.4,30.27,NE,46,0.0,0.0,89,0.00,,,0.00,WUHU216WMR968SP,2013-04-25 09:34:00,
2013-04-25 05:39:00,40.3,37.4,30.27,NE,46,0.0,0.0,89,0.00,,,0.00,WUHU216WMR968SP,2013-04-25 09:39:00,
2013-04-25 05:44:00,40.1,37.4,30.27,NE,46,0.0,0.0,90,0.00,,,0.00,WUHU216WMR968SP,2013-04-25 09:44:00,
2013-04-25 05:49:00,39.9,37.4,30.27,NE,46,0.0,0.0,90,0.00,,,0.00,WUHU216WMR968SP,2013-04-25 09:49:00,
2013-04-25 05:54:00,39.6,37.4,30.27,NE,46,0.0,0.0,90,0.00,,,0.00,WUHU216WMR968SP,2013-04-25 09:54:00,
2013-04-25 05:59:00,39.4,37.4,30.27,NE,46,0.0,0.0,91,0.00,,,0.00,WUHU216WMR968SP,2013-04-25 09:59:00,
2013-04-25 06:04:00,39.0,37.4,30.27,NE,46,0.0,0.0,92,0.00,,,0.00,WUHU216WMR968SP,2013-04-25 10:04:00,
2013-04-25 06:09:00,38.8,37.4,30.27,NE,46,0.0,0.0,92,0.00,,,0.00,WUHU216WMR968SP,2013-04-25 10:09:00,
2013-04-25 06:14:00,38.8,37.4,30.27,NE,46,0.0,0.0,93,0.00,,,0.00,WUHU216WMR968SP,2013-04-25 10:14:00,
2013-04-25 06:19:00,38.7,37.4,30.27,NE,46,0.0,0.0,93,0.00,,,0.00,WUHU216WMR968SP,2013-04-25 10:19:00,
2013-04-25 06:24:00,38.5,37.4,30.27,NE,46,0.0,0.0,93,0.00,,,0.00,WUHU216WMR968SP,2013-04-25 10:24:00,
2013-04-25 06:29:00,38.5,37.4,30.27,NE,46,0.0,0.0,94,0.00,,,0.00,WUHU216WMR968SP,2013-04-25 10:29:00,
2013-04-25 06:34:00,38.3,37.4,30.27,NE,46,0.0,0.0,94,0.00,,,0.00,WUHU216WMR968SP,2013-04-25 10:34:00,
2013-04-25 06:39:00,38.1,35.6,30.27,NE,46,0.0,0.0,94,0.00,,,0.00,WUHU216WMR968SP,2013-04-25 10:39:00,
2013-04-25 06:45:00,38.1,35.6,30.27,NE,46,0.0,0.0,95,0.00,,,0.00,WUHU216WMR968SP,2013-04-25 10:45:00,
2013-04-25 06:50:00,37.9,35.6,30.27,NE,46,0.0,0.0,95,0.00,,,0.00,WUHU216WMR968SP,2013-04-25 10:50:00,
2013-04-25 06:55:00,37.9,35.6,30.27,NE,46,0.0,0.0,95,0.00,,,0.00,WUHU216WMR968SP,2013-04-25 10:55:00,
2013-04-25 07:00:00,37.9,35.6,30.27,NE,46,0.0,0.0,95,0.00,,,0.00,WUHU216WMR968SP,2013-04-25 11:00:00,
2013-04-25 07:05:00,37.9,35.6,30.27,NE,46,0.0,0.0,96,0.00,,,0.00,WUHU216WMR968SP,2013-04-25 11:05:00,
2013-04-25 07:10:00,37.9,35.6,30.27,NE,46,0.0,0.0,96,0.00,,,0.00,WUHU216WMR968SP,2013-04-25 11:10:00,
2013-04-25 07:15:00,37.9,35.6,30.27,NE,46,0.0,0.0,96,0.00,,,0.00,WUHU216WMR968SP,2013-04-25 11:15:00,
2013-04-25 07:20:00,37.9,35.6,30.27,NE,46,0.0,0.0,96,0.00,,,0.00,WUHU216WMR968SP,2013-04-25 11:20:00,
2013-04-25 07:25:00,38.1,37.4,30.30,NE,46,0.0,0.0,97,0.00,,,0.00,WUHU216WMR968SP,2013-04-25 11:25:00,
2013-04-25 07:30:00,38.1,37.4,30.30,NE,46,0.0,0.0,97,0.00,,,0.00,WUHU216WMR968SP,2013-04-25 11:30:00,
2013-04-25 07:35:00,38.7,39.2,30.30,NE,46,0.0,0.0,97,0.00,,,0.00,WUHU216WMR968SP,2013-04-25 11:35:00,
2013-04-25 07:40:00,39.4,39.2,30.30,NE,46,0.0,0.0,97,0.00,,,0.00,WUHU216WMR968SP,2013-04-25 11:40:00,
2013-04-25 07:45:00,39.7,39.2,30.30,NE,46,0.0,0.0,97,0.00,,,0.00,WUHU216WMR968SP,2013-04-25 11:45:00,
2013-04-25 07:50:00,39.9,39.2,30.30,NE,46,0.0,0.0,97,0.00,,,0.00,WUHU216WMR968SP,2013-04-25 11:50:00,
2013-04-25 07:55:00,40.6,41.0,30.30,NE,46,0.0,0.0,98,0.00,,,0.00,WUHU216WMR968SP,2013-04-25 11:55:00,
2013-04-25 08:00:00,41.2,41.0,30.30,NE,47,0.0,0.0,97,0.00,,,0.00,WUHU216WMR968SP,2013-04-25 12:00:00,
2013-04-25 08:05:00,42.3,42.8,30.30,NE,47,0.0,0.0,97,0.00,,,0.00,WUHU216WMR968SP,2013-04-25 12:05:00,
2013-04-25 08:10:00,43.2,42.8,30.30,NE,47,0.0,0.0,97,0.00,,,0.00,WUHU216WMR968SP,2013-04-25 12:10:00,
2013-04-25 08:15:00,44.4,44.6,30.30,NE,47,0.0,0.0,97,0.00,,,0.00,WUHU216WMR968SP,2013-04-25 12:15:00,
2013-04-25 08:20:00,45.5,44.6,30.30,NE,48,0.0,0.0,95,0.00,,,0.00,WUHU216WMR968SP,2013-04-25 12:20:00,
2013-04-25 08:25:00,46.9,44.6,30.30,NE,49,0.0,0.0,94,0.00,,,0.00,WUHU216WMR968SP,2013-04-25 12:25:00,
2013-04-25 08:30:00,47.5,46.4,30.30,NE,49,0.0,0.0,91,0.00,,,0.00,WUHU216WMR968SP,2013-04-25 12:30:00,
2013-04-25 08:35:00,48.0,44.6,30.30,NE,53,0.0,0.0,88,0.00,,,0.00,WUHU216WMR968SP,2013-04-25 12:35:00,
2013-04-25 08:40:00,48.7,42.8,30.30,NE,53,0.0,0.0,84,0.00,,,0.00,WUHU216WMR968SP,2013-04-25 12:40:00,
2013-04-25 08:45:00,49.5,44.6,30.30,NE,50,0.0,0.0,82,0.00,,,0.00,WUHU216WMR968SP,2013-04-25 12:45:00,
2013-04-25 08:50:00,50.0,42.8,30.30,NNE,33,0.0,4.6,78,0.00,,,0.00,WUHU216WMR968SP,2013-04-25 12:50:00,
2013-04-25 08:55:00,50.2,42.8,30.30,North,11,0.0,4.6,75,0.00,,,0.00,WUHU216WMR968SP,2013-04-25 12:55:00,
2013-04-25 09:00:00,50.9,44.6,30.30,NNW,339,0.0,4.6,75,0.00,,,0.00,WUHU216WMR968SP,2013-04-25 13:00:00,
2013-04-25 09:06:00,51.4,42.8,30.30,NNW,340,0.0,0.0,73,0.00,,,0.00,WUHU216WMR968SP,2013-04-25 13:06:00,
2013-04-25 09:11:00,51.6,42.8,30.30,North,353,0.0,4.6,70,0.00,,,0.00,WUHU216WMR968SP,2013-04-25 13:11:00,
2013-04-25 09:16:00,52.0,41.0,30.30,NNE,27,0.0,4.6,68,0.00,,,0.00,WUHU216WMR968SP,2013-04-25 13:16:00,
2013-04-25 09:21:00,52.2,41.0,30.33,North,353,4.1,4.6,67,0.00,,,0.00,WUHU216WMR968SP,2013-04-25 13:21:00,
2013-04-25 09:26:00,52.0,41.0,30.33,NE,35,3.3,6.8,66,0.00,,,0.00,WUHU216WMR968SP,2013-04-25 13:26:00,
2013-04-25 09:31:00,52.2,41.0,30.33,NE,51,4.1,6.8,66,0.00,,,0.00,WUHU216WMR968SP,2013-04-25 13:31:00,
2013-04-25 09:36:00,52.7,42.8,30.33,NNW,335,0.0,5.4,65,0.00,,,0.00,WUHU216WMR968SP,2013-04-25 13:36:00,
2013-04-25 09:41:00,52.9,41.0,30.33,NW,306,4.1,6.0,64,0.00,,,0.00,WUHU216WMR968SP,2013-04-25 13:41:00,
2013-04-25 09:46:00,53.4,41.0,30.33,NNE,14,3.3,6.0,64,0.00,,,0.00,WUHU216WMR968SP,2013-04-25 13:46:00,
2013-04-25 09:51:00,53.2,41.0,30.33,North,11,3.3,5.4,62,0.00,,,0.00,WUHU216WMR968SP,2013-04-25 13:51:00,
2013-04-25 09:56:00,54.0,41.0,30.33,NNW,340,3.3,5.4,62,0.00,,,0.00,WUHU216WMR968SP,2013-04-25 13:56:00,
2013-04-25 10:01:00,54.3,41.0,30.33,NNE,14,3.3,4.6,61,0.00,,,0.00,WUHU216WMR968SP,2013-04-25 14:01:00,
2013-04-25 10:06:00,55.0,42.8,30.36,North,353,0.0,4.6,62,0.00,,,0.00,WUHU216WMR968SP,2013-04-25 14:06:00,
2013-04-25 10:11:00,55.2,41.0,30.36,NE,35,3.3,4.6,60,0.00,,,0.00,WUHU216WMR968SP,2013-04-25 14:11:00,
2013-04-25 10:16:00,55.9,41.0,30.36,NE,43,0.0,4.6,59,0.00,,,0.00,WUHU216WMR968SP,2013-04-25 14:16:00,
2013-04-25 10:21:00,56.7,42.8,30.36,ESE,119,0.0,4.6,60,0.00,,,0.00,WUHU216WMR968SP,2013-04-25 14:21:00,
2013-04-25 10:26:00,55.9,41.0,30.36,NE,37,0.0,6.0,57,0.00,,,0.00,WUHU216WMR968SP,2013-04-25 14:26:00,
2013-04-25 10:31:00,55.0,39.2,30.36,ENE,71,5.4,8.1,56,0.00,,,0.00,WUHU216WMR968SP,2013-04-25 14:31:00,
2013-04-25 10:36:00,55.6,41.0,30.33,North,2,4.1,10.8,57,0.00,,,0.00,WUHU216WMR968SP,2013-04-25 14:36:00,
2013-04-25 10:41:00,56.5,41.0,30.33,NE,47,0.0,10.8,56,0.00,,,0.00,WUHU216WMR968SP,2013-04-25 14:41:00,
2013-04-25 10:46:00,56.8,41.0,30.33,North,10,0.0,6.0,55,0.00,,,0.00,WUHU216WMR968SP,2013-04-25 14:46:00,
2013-04-25 10:51:00,56.8,41.0,30.36,East,92,0.0,6.0,55,0.00,,,0.00,WUHU216WMR968SP,2013-04-25 14:51:00,
2013-04-25 10:56:00,56.1,39.2,30.36,NNE,25,3.3,8.1,54,0.00,,,0.00,WUHU216WMR968SP,2013-04-25 14:56:00,
2013-04-25 11:01:00,56.7,41.0,30.36,NE,34,3.3,8.1,53,0.00,,,0.00,WUHU216WMR968SP,2013-04-25 15:01:00,
2013-04-25 11:06:00,57.2,41.0,30.36,North,353,3.3,6.0,53,0.00,,,0.00,WUHU216WMR968SP,2013-04-25 15:06:00,
2013-04-25 11:12:00,57.4,39.2,30.36,West,280,0.0,6.0,52,0.00,,,0.00,WUHU216WMR968SP,2013-04-25 15:12:00,
2013-04-25 11:17:00,57.4,39.2,30.36,NE,42,4.1,6.0,51,0.00,,,0.00,WUHU216WMR968SP,2013-04-25 15:17:00,
2013-04-25 11:22:00,57.9,39.2,30.36,ENE,68,0.0,6.0,51,0.00,,,0.00,WUHU216WMR968SP,2013-04-25 15:22:00,
2013-04-25 11:27:00,57.2,37.4,30.36,SSE,148,0.0,8.7,49,0.00,,,0.00,WUHU216WMR968SP,2013-04-25 15:27:00,
2013-04-25 11:32:00,57.7,37.4,30.36,SSE,167,3.3,8.7,49,0.00,,,0.00,WUHU216WMR968SP,2013-04-25 15:32:00,
2013-04-25 11:37:00,58.5,41.0,30.36,NNW,330,3.3,6.0,50,0.00,,,0.00,WUHU216WMR968SP,2013-04-25 15:37:00,
2013-04-25 11:42:00,58.6,39.2,30.36,NNE,13,3.3,6.0,49,0.00,,,0.00,WUHU216WMR968SP,2013-04-25 15:42:00,
2013-04-25 11:47:00,58.5,39.2,30.36,NE,46,4.1,8.7,48,0.00,,,0.00,WUHU216WMR968SP,2013-04-25 15:47:00,
2013-04-25 11:52:00,58.8,39.2,30.36,NNE,12,4.1,8.7,47,0.00,,,0.00,WUHU216WMR968SP,2013-04-25 15:52:00,
2013-04-25 11:57:00,59.4,39.2,30.36,ENE,57,4.1,6.0,47,0.00,,,0.00,WUHU216WMR968SP,2013-04-25 15:57:00,
2013-04-25 12:02:00,59.7,37.4,30.36,South,190,0.0,6.0,46,0.00,,,0.00,WUHU216WMR968SP,2013-04-25 16:02:00,
2013-04-25 12:07:00,58.8,37.4,30.36,ESE,111,6.8,9.5,46,0.00,,,0.00,WUHU216WMR968SP,2013-04-25 16:07:00,
2013-04-25 12:12:00,59.2,37.4,30.36,ENE,61,3.3,9.5,46,0.00,,,0.00,WUHU216WMR968SP,2013-04-25 16:12:00,
2013-04-25 12:17:00,59.2,37.4,30.36,SE,141,5.4,6.0,46,0.00,,,0.00,WUHU216WMR968SP,2013-04-25 16:17:00,
2013-04-25 12:22:00,60.1,39.2,30.36,NE,49,0.0,6.0,46,0.00,,,0.00,WUHU216WMR968SP,2013-04-25 16:22:00,
2013-04-25 12:27:00,61.5,39.2,30.36,NNW,328,0.0,6.0,46,0.00,,,0.00,WUHU216WMR968SP,2013-04-25 16:27:00,
2013-04-25 12:32:00,60.6,39.2,30.36,ENE,75,3.3,6.0,45,0.00,,,0.00,WUHU216WMR968SP,2013-04-25 16:32:00,
2013-04-25 12:37:00,60.1,39.2,30.36,NNE,29,0.0,7.4,44,0.00,,,0.00,WUHU216WMR968SP,2013-04-25 16:37:00,
2013-04-25 12:42:00,61.2,39.2,30.36,WNW,283,3.3,7.4,45,0.00,,,0.00,WUHU216WMR968SP,2013-04-25 16:42:00,
2013-04-25 12:47:00,60.6,39.2,30.36,SE,126,4.6,8.7,43,0.00,,,0.00,WUHU216WMR968SP,2013-04-25 16:47:00,
2013-04-25 12:52:00,60.6,39.2,30.36,South,179,0.0,8.7,44,0.00,,,0.00,WUHU216WMR968SP,2013-04-25 16:52:00,
2013-04-25 12:57:00,62.6,39.2,30.36,North,0,3.3,6.0,43,0.00,,,0.00,WUHU216WMR968SP,2013-04-25 16:57:00,
2013-04-25 13:02:00,61.2,35.6,30.36,ESE,111,4.6,8.7,40,0.00,,,0.00,WUHU216WMR968SP,2013-04-25 17:02:00,
2013-04-25 13:07:00,61.0,37.4,30.36,East,98,3.3,8.7,41,0.00,,,0.00,WUHU216WMR968SP,2013-04-25 17:07:00,
2013-04-25 13:12:00,61.5,37.4,30.36,ENE,71,0.0,7.4,42,0.00,,,0.00,WUHU216WMR968SP,2013-04-25 17:12:00,
2013-04-25 13:18:00,63.1,39.2,30.36,North,5,0.0,6.0,42,0.00,,,0.00,WUHU216WMR968SP,2013-04-25 17:18:00,
2013-04-25 13:23:00,63.5,41.0,30.36,NNW,327,0.0,5.4,41,0.00,,,0.00,WUHU216WMR968SP,2013-04-25 17:23:00,
2013-04-25 13:28:00,63.9,41.0,30.36,West,261,0.0,5.4,42,0.00,,,0.00,WUHU216WMR968SP,2013-04-25 17:28:00,
2013-04-25 13:33:00,63.1,37.4,30.36,SSW,193,6.8,8.1,39,0.00,,,0.00,WUHU216WMR968SP,2013-04-25 17:33:00,
2013-04-25 13:38:00,63.5,39.2,30.33,ESE,104,3.3,8.1,40,0.00,,,0.00,WUHU216WMR968SP,2013-04-25 17:38:00,
2013-04-25 13:43:00,62.6,37.4,30.33,ESE,113,3.3,7.4,39,0.00,,,0.00,WUHU216WMR968SP,2013-04-25 17:43:00,
2013-04-25 13:48:00,63.1,37.4,30.33,NNE,14,0.0,7.4,40,0.00,,,0.00,WUHU216WMR968SP,2013-04-25 17:48:00,
2013-04-25 13:53:00,62.2,37.4,30.33,NE,37,4.1,9.5,39,0.00,,,0.00,WUHU216WMR968SP,2013-04-25 17:53:00,
2013-04-25 13:58:00,63.3,37.4,30.33,ENE,71,0.0,9.5,40,0.00,,,0.00,WUHU216WMR968SP,2013-04-25 17:58:00,
2013-04-25 14:03:00,63.1,37.4,30.33,NE,42,0.0,8.7,39,0.00,,,0.00,WUHU216WMR968SP,2013-04-25 18:03:00,
2013-04-25 14:08:00,63.7,39.2,30.33,SE,133,6.0,8.7,39,0.00,,,0.00,WUHU216WMR968SP,2013-04-25 18:08:00,
2013-04-25 14:13:00,63.3,37.4,30.33,NE,55,4.1,8.1,38,0.00,,,0.00,WUHU216WMR968SP,2013-04-25 18:13:00,
2013-04-25 14:18:00,64.0,39.2,30.33,SW,229,4.1,7.4,38,0.00,,,0.00,WUHU216WMR968SP,2013-04-25 18:18:00,
2013-04-25 14:23:00,64.8,39.2,30.33,WNW,299,0.0,7.4,38,0.00,,,0.00,WUHU216WMR968SP,2013-04-25 18:23:00,
2013-04-25 14:28:00,64.9,39.2,30.33,SSW,209,4.1,6.0,38,0.00,,,0.00,WUHU216WMR968SP,2013-04-25 18:28:00,
2013-04-25 14:33:00,65.5,39.2,30.33,WNW,301,4.6,6.0,38,0.00,,,0.00,WUHU216WMR968SP,2013-04-25 18:33:00,
2013-04-25 14:38:00,65.7,39.2,30.33,East,91,0.0,8.1,37,0.00,,,0.00,WUHU216WMR968SP,2013-04-25 18:38:00,
2013-04-25 14:43:00,66.4,39.2,30.33,North,357,0.0,8.1,37,0.00,,,0.00,WUHU216WMR968SP,2013-04-25 18:43:00,
2013-04-25 14:48:00,66.4,39.2,30.33,SSW,211,3.3,7.4,36,0.00,,,0.00,WUHU216WMR968SP,2013-04-25 18:48:00,
2013-04-25 14:53:00,66.2,39.2,30.33,NW,311,0.0,6.0,37,0.00,,,0.00,WUHU216WMR968SP,2013-04-25 18:53:00,
2013-04-25 14:58:00,66.7,39.2,30.33,North,353,0.0,5.4,37,0.00,,,0.00,WUHU216WMR968SP,2013-04-25 18:58:00,
2013-04-25 15:03:00,66.2,39.2,30.33,SSW,192,4.6,6.0,36,0.00,,,0.00,WUHU216WMR968SP,2013-04-25 19:03:00,
2013-04-25 15:13:00,66.6,39.2,30.33,NE,37,3.3,3.3,36,0.00,,,0.00,WUHU216WMR968SP,2013-04-25 19:13:00,
2013-04-25 15:22:00,66.0,39.2,30.33,SW,224,4.1,8.7,36,0.00,,,0.00,WUHU216WMR968SP,2013-04-25 19:22:00,
2013-04-25 15:28:00,66.7,37.4,30.33,ESE,111,0.0,8.7,35,0.00,,,0.00,WUHU216WMR968SP,2013-04-25 19:28:00,
2013-04-25 15:33:00,67.3,39.2,30.33,SSE,150,0.0,4.6,35,0.00,,,0.00,WUHU216WMR968SP,2013-04-25 19:33:00,
2013-04-25 15:38:00,66.9,37.4,30.33,ESE,111,0.0,4.6,35,0.00,,,0.00,WUHU216WMR968SP,2013-04-25 19:38:00,
2013-04-25 15:43:00,68.0,39.2,30.33,North,357,0.0,4.1,35,0.00,,,0.00,WUHU216WMR968SP,2013-04-25 19:43:00,
2013-04-25 15:48:00,68.0,39.2,30.33,NNE,13,4.1,5.4,35,0.00,,,0.00,WUHU216WMR968SP,2013-04-25 19:48:00,
2013-04-25 15:53:00,67.5,39.2,30.33,SE,127,4.6,6.0,34,0.00,,,0.00,WUHU216WMR968SP,2013-04-25 19:53:00,
2013-04-25 15:58:00,66.6,37.4,30.33,ENE,78,0.0,6.0,34,0.00,,,0.00,WUHU216WMR968SP,2013-04-25 19:58:00,
2013-04-25 16:03:00,66.7,37.4,30.33,West,270,0.0,6.0,34,0.00,,,0.00,WUHU216WMR968SP,2013-04-25 20:03:00,
2013-04-25 16:08:00,67.1,39.2,30.33,ESE,115,0.0,4.6,34,0.00,,,0.00,WUHU216WMR968SP,2013-04-25 20:08:00,
2013-04-25 16:13:00,66.9,37.4,30.33,SE,142,0.0,4.1,34,0.00,,,0.00,WUHU216WMR968SP,2013-04-25 20:13:00,
2013-04-25 16:18:00,67.3,39.2,30.33,NNW,331,0.0,4.1,35,0.00,,,0.00,WUHU216WMR968SP,2013-04-25 20:18:00,
2013-04-25 16:23:00,67.1,39.2,30.30,SW,218,0.0,6.0,34,0.00,,,0.00,WUHU216WMR968SP,2013-04-25 20:23:00,
2013-04-25 16:28:00,66.2,37.4,30.30,WNW,294,3.3,7.4,34,0.00,,,0.00,WUHU216WMR968SP,2013-04-25 20:28:00,
2013-04-25 16:33:00,66.6,37.4,30.30,South,170,0.0,7.4,34,0.00,,,0.00,WUHU216WMR968SP,2013-04-25 20:33:00,
2013-04-25 16:38:00,66.7,37.4,30.30,SSW,212,0.0,5.4,34,0.00,,,0.00,WUHU216WMR968SP,2013-04-25 20:38:00,
2013-04-25 16:43:00,66.6,37.4,30.30,NE,41,5.4,6.0,34,0.00,,,0.00,WUHU216WMR968SP,2013-04-25 20:43:00,
2013-04-25 16:48:00,66.7,37.4,30.30,NW,322,4.1,6.0,34,0.00,,,0.00,WUHU216WMR968SP,2013-04-25 20:48:00,
2013-04-25 16:53:00,66.9,37.4,30.30,NNW,331,0.0,5.4,34,0.00,,,0.00,WUHU216WMR968SP,2013-04-25 20:53:00,
2013-04-25 16:58:00,67.3,39.2,30.30,WNW,294,0.0,5.4,34,0.00,,,0.00,WUHU216WMR968SP,2013-04-25 20:58:00,
2013-04-25 17:03:00,67.1,39.2,30.30,West,269,0.0,4.6,34,0.00,,,0.00,WUHU216WMR968SP,2013-04-25 21:03:00,
2013-04-25 17:08:00,67.1,39.2,30.30,West,262,0.0,0.0,34,0.00,,,0.00,WUHU216WMR968SP,2013-04-25 21:08:00,
2013-04-25 17:13:00,66.9,37.4,30.30,West,264,3.3,5.4,34,0.00,,,0.00,WUHU216WMR968SP,2013-04-25 21:13:00,
2013-04-25 17:18:00,66.9,37.4,30.30,SW,221,0.0,5.4,34,0.00,,,0.00,WUHU216WMR968SP,2013-04-25 21:18:00,
2013-04-25 17:23:00,66.2,35.6,30.30,SW,229,0.0,6.0,33,0.00,,,0.00,WUHU216WMR968SP,2013-04-25 21:23:00,
2013-04-25 17:28:00,66.2,35.6,30.30,SW,230,0.0,6.0,33,0.00,,,0.00,WUHU216WMR968SP,2013-04-25 21:28:00,
2013-04-25 17:33:00,66.2,35.6,30.30,SW,227,0.0,0.0,33,0.00,,,0.00,WUHU216WMR968SP,2013-04-25 21:33:00,
2013-04-25 17:38:00,66.0,37.4,30.30,South,185,0.0,0.0,34,0.00,,,0.00,WUHU216WMR968SP,2013-04-25 21:38:00,
2013-04-25 17:43:00,66.0,37.4,30.30,South,181,0.0,4.6,34,0.00,,,0.00,WUHU216WMR968SP,2013-04-25 21:43:00,
2013-04-25 17:48:00,66.2,35.6,30.30,WSW,256,0.0,4.6,33,0.00,,,0.00,WUHU216WMR968SP,2013-04-25 21:48:00,
2013-04-25 17:53:00,65.8,35.6,30.30,SW,221,0.0,5.4,33,0.00,,,0.00,WUHU216WMR968SP,2013-04-25 21:53:00,
2013-04-25 17:58:00,65.8,37.4,30.30,West,281,0.0,5.4,34,0.00,,,0.00,WUHU216WMR968SP,2013-04-25 21:58:00,
2013-04-25 18:03:00,66.0,37.4,30.30,West,276,0.0,0.0,34,0.00,,,0.00,WUHU216WMR968SP,2013-04-25 22:03:00,
2013-04-25 18:09:00,65.8,35.6,30.30,SSW,200,0.0,4.6,33,0.00,,,0.00,WUHU216WMR968SP,2013-04-25 22:09:00,
2013-04-25 18:14:00,65.5,35.6,30.30,SSW,201,0.0,4.6,33,0.00,,,0.00,WUHU216WMR968SP,2013-04-25 22:14:00,
2013-04-25 18:19:00,65.5,35.6,30.30,SSW,208,0.0,0.0,33,0.00,,,0.00,WUHU216WMR968SP,2013-04-25 22:19:00,
2013-04-25 18:24:00,65.5,35.6,30.30,SSW,208,0.0,0.0,33,0.00,,,0.00,WUHU216WMR968SP,2013-04-25 22:24:00,
2013-04-25 18:29:00,65.5,35.6,30.30,SSW,208,0.0,0.0,33,0.00,,,0.00,WUHU216WMR968SP,2013-04-25 22:29:00,
2013-04-25 18:34:00,65.5,35.6,30.30,SSW,208,0.0,0.0,33,0.00,,,0.00,WUHU216WMR968SP,2013-04-25 22:34:00,
2013-04-25 18:39:00,65.5,35.6,30.30,SSW,208,0.0,0.0,33,0.00,,,0.00,WUHU216WMR968SP,2013-04-25 22:39:00,
2013-04-25 18:44:00,65.3,35.6,30.30,SSW,208,0.0,0.0,33,0.00,,,0.00,WUHU216WMR968SP,2013-04-25 22:44:00,
2013-04-25 18:49:00,64.8,35.6,30.30,SSW,208,0.0,0.0,34,0.00,,,0.00,WUHU216WMR968SP,2013-04-25 22:49:00,
2013-04-25 18:54:00,64.6,35.6,30.30,SSW,208,0.0,0.0,34,0.00,,,0.00,WUHU216WMR968SP,2013-04-25 22:54:00,
2013-04-25 18:59:00,64.6,35.6,30.30,SSW,208,0.0,0.0,34,0.00,,,0.00,WUHU216WMR968SP,2013-04-25 22:59:00,
2013-04-25 19:04:00,64.2,35.6,30.30,SSW,208,0.0,0.0,34,0.00,,,0.00,WUHU216WMR968SP,2013-04-25 23:04:00,
2013-04-25 19:09:00,64.0,35.6,30.30,SSW,208,0.0,0.0,34,0.00,,,0.00,WUHU216WMR968SP,2013-04-25 23:09:00,
2013-04-25 19:14:00,63.7,35.6,30.30,SSW,208,0.0,0.0,34,0.00,,,0.00,WUHU216WMR968SP,2013-04-25 23:14:00,
2013-04-25 19:19:00,63.5,35.6,30.30,SSW,208,0.0,0.0,35,0.00,,,0.00,WUHU216WMR968SP,2013-04-25 23:19:00,
2013-04-25 19:24:00,63.0,33.8,30.30,SSW,208,0.0,0.0,35,0.00,,,0.00,WUHU216WMR968SP,2013-04-25 23:24:00,
2013-04-25 19:29:00,62.6,33.8,30.30,SSW,208,0.0,0.0,35,0.00,,,0.00,WUHU216WMR968SP,2013-04-25 23:29:00,
2013-04-25 19:34:00,61.9,35.6,30.30,SSW,208,0.0,0.0,36,0.00,,,0.00,WUHU216WMR968SP,2013-04-25 23:34:00,
2013-04-25 19:39:00,61.5,33.8,30.30,SSW,208,0.0,0.0,37,0.00,,,0.00,WUHU216WMR968SP,2013-04-25 23:39:00,
2013-04-25 19:44:00,60.8,35.6,30.30,SSW,208,0.0,0.0,38,0.00,,,0.00,WUHU216WMR968SP,2013-04-25 23:44:00,
2013-04-25 19:49:00,60.1,35.6,30.30,SSW,208,0.0,0.0,39,0.00,,,0.00,WUHU216WMR968SP,2013-04-25 23:49:00,
2013-04-25 19:54:00,59.2,35.6,30.30,SSW,208,0.0,0.0,41,0.00,,,0.00,WUHU216WMR968SP,2013-04-25 23:54:00,
2013-04-25 19:59:00,58.5,37.4,30.30,SSW,208,0.0,0.0,43,0.00,,,0.00,WUHU216WMR968SP,2013-04-25 23:59:00,
2013-04-25 20:04:00,57.7,35.6,30.30,SSW,208,0.0,0.0,44,0.00,,,0.00,WUHU216WMR968SP,2013-04-26 00:04:00,
2013-04-25 20:09:00,57.0,37.4,30.30,SSW,207,0.0,0.0,46,0.00,,,0.00,WUHU216WMR968SP,2013-04-26 00:09:00,
2013-04-25 20:14:00,56.3,37.4,30.30,SSW,207,0.0,0.0,47,0.00,,,0.00,WUHU216WMR968SP,2013-04-26 00:14:00,
2013-04-25 20:19:00,55.8,35.6,30.30,SSW,207,0.0,0.0,48,0.00,,,0.00,WUHU216WMR968SP,2013-04-26 00:19:00,
2013-04-25 20:24:00,55.2,37.4,30.30,SSW,207,0.0,0.0,50,0.00,,,0.00,WUHU216WMR968SP,2013-04-26 00:24:00,
2013-04-25 20:29:00,54.7,37.4,30.30,SSW,207,0.0,0.0,51,0.00,,,0.00,WUHU216WMR968SP,2013-04-26 00:29:00,
2013-04-25 20:34:00,54.1,37.4,30.30,SSW,207,0.0,0.0,53,0.00,,,0.00,WUHU216WMR968SP,2013-04-26 00:34:00,
2013-04-25 20:40:00,53.8,37.4,30.30,SSW,207,0.0,0.0,53,0.00,,,0.00,WUHU216WMR968SP,2013-04-26 00:40:00,
2013-04-25 20:45:00,53.1,37.4,30.30,SSW,207,0.0,0.0,55,0.00,,,0.00,WUHU216WMR968SP,2013-04-26 00:45:00,
2013-04-25 20:50:00,52.3,37.4,30.30,SSW,207,0.0,0.0,57,0.00,,,0.00,WUHU216WMR968SP,2013-04-26 00:50:00,
2013-04-25 20:55:00,52.0,37.4,30.30,SSW,207,0.0,0.0,57,0.00,,,0.00,WUHU216WMR968SP,2013-04-26 00:55:00,
2013-04-25 21:00:00,51.4,37.4,30.30,SSW,207,0.0,0.0,59,0.00,,,0.00,WUHU216WMR968SP,2013-04-26 01:00:00,
2013-04-25 21:05:00,51.1,37.4,30.30,SSW,207,0.0,0.0,60,0.00,,,0.00,WUHU216WMR968SP,2013-04-26 01:05:00,
2013-04-25 21:10:00,50.5,37.4,30.30,SSW,207,0.0,0.0,61,0.00,,,0.00,WUHU216WMR968SP,2013-04-26 01:10:00,
2013-04-25 21:15:00,50.2,37.4,30.30,SSW,207,0.0,0.0,60,0.00,,,0.00,WUHU216WMR968SP,2013-04-26 01:15:00,
2013-04-25 21:20:00,49.8,37.4,30.30,SSW,207,0.0,0.0,62,0.00,,,0.00,WUHU216WMR968SP,2013-04-26 01:20:00,
2013-04-25 21:25:00,49.6,37.4,30.33,South,179,0.0,0.0,60,0.00,,,0.00,WUHU216WMR968SP,2013-04-26 01:25:00,
2013-04-25 21:30:00,49.6,37.4,30.33,South,179,0.0,0.0,61,0.00,,,0.00,WUHU216WMR968SP,2013-04-26 01:30:00,
2013-04-25 21:35:00,49.1,37.4,30.33,South,179,0.0,0.0,62,0.00,,,0.00,WUHU216WMR968SP,2013-04-26 01:35:00,
2013-04-25 21:40:00,48.7,35.6,30.33,South,179,0.0,0.0,62,0.00,,,0.00,WUHU216WMR968SP,2013-04-26 01:40:00,
2013-04-25 21:45:00,48.6,35.6,30.33,South,179,0.0,0.0,63,0.00,,,0.00,WUHU216WMR968SP,2013-04-26 01:45:00,
2013-04-25 21:50:00,48.2,37.4,30.33,SSE,160,0.0,0.0,64,0.00,,,0.00,WUHU216WMR968SP,2013-04-26 01:50:00,
2013-04-25 21:55:00,48.0,37.4,30.33,SSE,158,0.0,0.0,65,0.00,,,0.00,WUHU216WMR968SP,2013-04-26 01:55:00,
2013-04-25 22:00:00,47.8,37.4,30.33,SSE,158,0.0,0.0,66,0.00,,,0.00,WUHU216WMR968SP,2013-04-26 02:00:00,
2013-04-25 22:05:00,47.7,37.4,30.36,SSE,158,0.0,0.0,67,0.00,,,0.00,WUHU216WMR968SP,2013-04-26 02:05:00,
2013-04-25 22:10:00,47.7,37.4,30.36,SSE,158,0.0,0.0,67,0.00,,,0.00,WUHU216WMR968SP,2013-04-26 02:10:00,
2013-04-25 22:15:00,47.3,37.4,30.36,SSE,158,0.0,0.0,67,0.00,,,0.00,WUHU216WMR968SP,2013-04-26 02:15:00,
2013-04-25 22:20:00,47.1,35.6,30.36,SSE,158,0.0,0.0,68,0.00,,,0.00,WUHU216WMR968SP,2013-04-26 02:20:00,
2013-04-25 22:25:00,46.9,37.4,30.36,SSE,158,0.0,0.0,69,0.00,,,0.00,WUHU216WMR968SP,2013-04-26 02:25:00,
2013-04-25 22:30:00,46.6,37.4,30.36,SSE,158,0.0,0.0,69,0.00,,,0.00,WUHU216WMR968SP,2013-04-26 02:30:00,
2013-04-25 22:35:00,46.2,37.4,30.36,SSE,158,0.0,0.0,69,0.00,,,0.00,WUHU216WMR968SP,2013-04-26 02:35:00,
2013-04-25 22:40:00,46.0,37.4,30.36,SSE,157,0.0,0.0,70,0.00,,,0.00,WUHU216WMR968SP,2013-04-26 02:40:00,
2013-04-25 22:45:00,46.0,37.4,30.36,SSE,158,0.0,0.0,70,0.00,,,0.00,WUHU216WMR968SP,2013-04-26 02:45:00,
2013-04-25 22:51:00,45.9,37.4,30.36,SSE,158,0.0,0.0,70,0.00,,,0.00,WUHU216WMR968SP,2013-04-26 02:51:00,
2013-04-25 22:56:00,45.9,37.4,30.36,SSE,158,0.0,0.0,71,0.00,,,0.00,WUHU216WMR968SP,2013-04-26 02:56:00,
2013-04-25 23:01:00,45.9,37.4,30.36,SSE,158,0.0,0.0,70,0.00,,,0.00,WUHU216WMR968SP,2013-04-26 03:01:00,
2013-04-25 23:06:00,45.9,37.4,30.36,SSE,158,0.0,0.0,69,0.00,,,0.00,WUHU216WMR968SP,2013-04-26 03:06:00,
2013-04-25 23:11:00,45.9,37.4,30.36,SSE,158,0.0,0.0,70,0.00,,,0.00,WUHU216WMR968SP,2013-04-26 03:11:00,
2013-04-25 23:16:00,45.9,37.4,30.36,SSE,158,0.0,0.0,70,0.00,,,0.00,WUHU216WMR968SP,2013-04-26 03:16:00,
2013-04-25 23:21:00,45.5,37.4,30.36,SSE,158,0.0,0.0,71,0.00,,,0.00,WUHU216WMR968SP,2013-04-26 03:21:00,
2013-04-25 23:26:00,45.5,37.4,30.36,SSE,158,0.0,0.0,71,0.00,,,0.00,WUHU216WMR968SP,2013-04-26 03:26:00,
2013-04-25 23:31:00,45.1,35.6,30.36,SSE,158,0.0,0.0,72,0.00,,,0.00,WUHU216WMR968SP,2013-04-26 03:31:00,
2013-04-25 23:36:00,45.1,35.6,30.36,SE,133,0.0,0.0,72,0.00,,,0.00,WUHU216WMR968SP,2013-04-26 03:36:00,
2013-04-25 23:41:00,45.1,35.6,30.36,SE,131,0.0,0.0,72,0.00,,,0.00,WUHU216WMR968SP,2013-04-26 03:41:00,
2013-04-25 23:46:00,45.0,35.6,30.36,SE,131,0.0,0.0,72,0.00,,,0.00,WUHU216WMR968SP,2013-04-26 03:46:00,
2013-04-25 23:51:00,44.8,35.6,30.36,SE,124,0.0,0.0,72,0.00,,,0.00,WUHU216WMR968SP,2013-04-26 03:51:00,
2013-04-25 23:56:00,44.6,35.6,30.36,ESE,123,0.0,0.0,73,0.00,,,0.00,WUHU216WMR968SP,2013-04-26 03:56:00,